UTA7775 USRO-USRR

Flight info

Callsign UTA7775
Flight time N/A
Altitude 24000
Route DINOL2G DINOL T797 INDUS INDUS1T
Aircraft AT76/M-SDFGIRY/S

Departure

Time 2026-04-19 07:25
Airport Noyabrsk Airport (USRO)

Arrival

Time N/A
Airport Surgut International Airport (USRR)
Time Latitude Longitude Altitude Speed Heading
2026-04-19 06:29 63.17842 75.26926 455 ft 0 kts 242°
2026-04-19 06:52 63.17831 75.26891 453 ft 6 kts 235°
2026-04-19 06:52 63.17808 75.26797 456 ft 7 kts 236°
2026-04-19 06:52 63.17792 75.26731 456 ft 0 kts 263°
2026-04-19 07:17 63.17794 75.26704 456 ft 2 kts 288°
2026-04-19 07:18 63.17814 75.26600 456 ft 8 kts 292°
2026-04-19 07:18 63.17833 75.26500 455 ft 7 kts 292°
2026-04-19 07:18 63.17850 75.26412 455 ft 5 kts 296°
2026-04-19 07:18 63.17872 75.26377 455 ft 8 kts 342°
2026-04-19 07:19 63.17877 75.26378 455 ft 0 kts 15°
2026-04-19 07:24 63.17896 75.26393 454 ft 0 kts 21°
2026-04-19 07:24 63.18156 75.26655 457 ft 81 kts 24°
2026-04-19 07:25 63.18819 75.27358 643 ft 122 kts 21°
2026-04-19 07:25 63.19663 75.28187 872 ft 137 kts 20°
2026-04-19 07:25 63.20605 75.28549 1196 ft 141 kts 351°
2026-04-19 07:25 63.21517 75.27613 1437 ft 152 kts 320°
2026-04-19 07:26 63.22099 75.25609 1654 ft 162 kts 284°
2026-04-19 07:26 63.21808 75.23233 1844 ft 166 kts 231°
2026-04-19 07:26 63.20777 75.22054 2224 ft 172 kts 198°
2026-04-19 07:26 63.19572 75.21372 2579 ft 185 kts 192°
2026-04-19 07:27 63.18296 75.20950 3120 ft 185 kts 188°
2026-04-19 07:27 63.17017 75.20485 3684 ft 187 kts 192°
2026-04-19 07:27 63.15747 75.19810 4252 ft 189 kts 195°
2026-04-19 07:27 63.14484 75.19009 4784 ft 188 kts 203°
2026-04-19 07:28 63.13442 75.17306 5270 ft 188 kts 226°
2026-04-19 07:28 63.12462 75.15364 5806 ft 190 kts 225°
2026-04-19 07:28 63.11438 75.13493 6323 ft 192 kts 222°
2026-04-19 07:28 63.10367 75.11696 6856 ft 194 kts 220°
2026-04-19 07:29 63.09270 75.09934 7352 ft 196 kts 219°
2026-04-19 07:29 63.08162 75.08162 7870 ft 198 kts 219°
2026-04-19 07:29 63.07041 75.06383 8375 ft 199 kts 219°
2026-04-19 07:29 63.05926 75.04615 8865 ft 201 kts 219°
2026-04-19 07:30 63.04776 75.02791 9365 ft 202 kts 219°
2026-04-19 07:30 63.03644 75.00993 9866 ft 204 kts 219°
2026-04-19 07:30 63.02474 74.99132 10363 ft 205 kts 219°
2026-04-19 07:30 63.01329 74.97312 10817 ft 206 kts 219°
2026-04-19 07:31 63.00159 74.95464 11282 ft 206 kts 220°
2026-04-19 07:31 62.99106 74.93361 11685 ft 205 kts 226°
2026-04-19 07:31 62.97952 74.91463 12086 ft 208 kts 220°
2026-04-19 07:31 62.96737 74.89688 12535 ft 210 kts 217°
2026-04-19 07:32 62.95490 74.87989 12976 ft 212 kts 216°
2026-04-19 07:32 62.94223 74.86316 13406 ft 214 kts 215°
2026-04-19 07:32 62.92935 74.84660 13809 ft 214 kts 216°
2026-04-19 07:32 62.91637 74.83060 14244 ft 214 kts 216°
2026-04-19 07:33 62.90325 74.81492 14612 ft 215 kts 216°
2026-04-19 07:33 62.89069 74.80014 14954 ft 217 kts 216°
2026-04-19 07:33 62.87732 74.78459 15310 ft 218 kts 215°
2026-04-19 07:33 62.86386 74.76910 15659 ft 219 kts 215°
2026-04-19 07:34 62.85115 74.75465 15988 ft 220 kts 215°
2026-04-19 07:34 62.83769 74.73948 16326 ft 221 kts 215°
2026-04-19 07:34 62.82395 74.72415 16676 ft 222 kts 215°
2026-04-19 07:34 62.81005 74.70866 16889 ft 229 kts 215°
2026-04-19 07:35 62.79553 74.69237 16942 ft 241 kts 214°
2026-04-19 07:35 62.78004 74.67613 16967 ft 252 kts 212°
2026-04-19 07:35 62.76416 74.66055 16975 ft 244 kts 212°
2026-04-19 07:35 62.74889 74.64554 16928 ft 238 kts 212°
2026-04-19 07:36 62.73387 74.63090 16844 ft 236 kts 212°
2026-04-19 07:36 62.71895 74.61639 16736 ft 234 kts 212°
2026-04-19 07:36 62.70420 74.60175 16622 ft 233 kts 212°
2026-04-19 07:36 62.68953 74.58702 16516 ft 232 kts 212°
2026-04-19 07:37 62.67489 74.57231 16403 ft 231 kts 212°
2026-04-19 07:37 62.66028 74.55768 16292 ft 231 kts 212°
2026-04-19 07:37 62.64570 74.54307 16180 ft 231 kts 212°
2026-04-19 07:37 62.63112 74.52847 16059 ft 231 kts 212°
2026-04-19 07:38 62.61650 74.51403 15946 ft 230 kts 212°
2026-04-19 07:38 62.60190 74.49967 15846 ft 230 kts 212°
2026-04-19 07:38 62.58731 74.48533 15742 ft 230 kts 212°
2026-04-19 07:38 62.57277 74.47103 15625 ft 230 kts 212°
2026-04-19 07:39 62.55817 74.45687 15522 ft 229 kts 212°
2026-04-19 07:39 62.54362 74.44293 15425 ft 229 kts 212°
2026-04-19 07:39 62.52907 74.42904 15327 ft 228 kts 212°
2026-04-19 07:39 62.51471 74.41532 15230 ft 228 kts 212°
2026-04-19 07:40 62.50004 74.40128 15125 ft 228 kts 212°
2026-04-19 07:40 62.48578 74.38760 15024 ft 227 kts 212°
2026-04-19 07:40 62.47134 74.37370 14924 ft 227 kts 212°
2026-04-19 07:40 62.45695 74.35982 14829 ft 227 kts 212°
2026-04-19 07:41 62.44252 74.34586 14727 ft 226 kts 212°
2026-04-19 07:41 62.42816 74.33195 14630 ft 226 kts 212°
2026-04-19 07:41 62.41380 74.31802 14535 ft 226 kts 212°
2026-04-19 07:41 62.39949 74.30409 14437 ft 226 kts 212°
2026-04-19 07:42 62.38520 74.29018 14344 ft 225 kts 212°
2026-04-19 07:42 62.37088 74.27616 14251 ft 225 kts 212°
2026-04-19 07:42 62.35662 74.26219 14154 ft 225 kts 212°
2026-04-19 07:42 62.34241 74.24821 14052 ft 225 kts 212°
2026-04-19 07:43 62.32819 74.23420 13952 ft 225 kts 212°
2026-04-19 07:43 62.31398 74.22019 13856 ft 224 kts 212°
2026-04-19 07:43 62.29997 74.20634 13752 ft 224 kts 212°
2026-04-19 07:43 62.28580 74.19232 13652 ft 224 kts 212°
2026-04-19 07:44 62.27168 74.17831 13552 ft 224 kts 212°
2026-04-19 07:44 62.25756 74.16424 13454 ft 223 kts 212°
2026-04-19 07:44 62.24344 74.15016 13357 ft 223 kts 212°
2026-04-19 07:44 62.22938 74.13607 13261 ft 223 kts 211°
2026-04-19 07:45 62.21532 74.12202 13159 ft 223 kts 212°
2026-04-19 07:45 62.20125 74.10813 13068 ft 222 kts 212°
2026-04-19 07:45 62.18724 74.09433 12983 ft 222 kts 212°
2026-04-19 07:45 62.17325 74.08053 12891 ft 221 kts 211°
2026-04-19 07:46 62.15926 74.06673 12805 ft 221 kts 212°
2026-04-19 07:46 62.14532 74.05294 12716 ft 221 kts 211°
2026-04-19 07:46 62.13140 74.03918 12636 ft 220 kts 211°
2026-04-19 07:46 62.11750 74.02538 12535 ft 220 kts 211°
2026-04-19 07:47 62.10363 74.01157 12447 ft 220 kts 211°
2026-04-19 07:47 62.08975 73.99774 12365 ft 220 kts 211°
2026-04-19 07:47 62.07593 73.98390 12297 ft 219 kts 211°
2026-04-19 07:47 62.06240 73.97049 12292 ft 216 kts 211°
2026-04-19 07:48 62.04884 73.95730 12287 ft 213 kts 211°
2026-04-19 07:48 62.03542 73.94429 12252 ft 211 kts 211°
2026-04-19 07:48 62.02210 73.93137 12216 ft 211 kts 211°
2026-04-19 07:48 62.00876 73.91841 12070 ft 208 kts 211°
2026-04-19 07:49 61.99541 73.90556 11928 ft 212 kts 211°
2026-04-19 07:49 61.98186 73.89265 11817 ft 213 kts 210°
2026-04-19 07:49 61.96831 73.87982 11745 ft 213 kts 210°
2026-04-19 07:49 61.95475 73.86698 11656 ft 213 kts 210°
2026-04-19 07:50 61.94122 73.85414 11573 ft 213 kts 210°